Location: La Bastide
(43.1661°N, 1.2755°E)
Time: 00:08:19
(UTC+00:00)

Tiangong - Pass Details

Date: 17 February 2026
Orbit: 381 x 391 km, 41.5° (Epoch: 7 March)

Event Time Altitude Azimuth Distance (km) Brightness Sun altitude
Rises 18:08:39 0° 267° (W) 2,257 4.2 -8.0°
Reaches altitude 10° 18:10:44 10° 264° (W) 1,401 2.4 -8.4°
Maximum altitude 18:13:51 64° 182° (S) 426 -1.9 -8.9°
Enters shadow 18:16:36 13° 101° (ESE) 1,245 -0.2 -9.4°
